2023/05/07 00:00:00,50.4,16.3
2023/05/07 00:10:00,48.2,15.9
2023/05/07 00:20:00,39.9,15.9
2023/05/07 00:30:00,51.2,16.0
2023/05/07 00:40:00,54.4,16.1
2023/05/07 00:50:00,55.3,15.6
2023/05/07 01:00:00,55.2,15.8
2023/05/07 01:10:00,---,15.6
2023/05/07 01:20:00,44.6,15.7
2023/05/07 01:30:00,51.4,15.8
2023/05/07 01:40:00,51.8,15.1
2023/05/07 01:50:00,51.2,14.8
2023/05/07 02:00:00,56.4,14.9
2023/05/07 02:10:00,58.0,14.7
2023/05/07 02:20:00,57.6,14.9
2023/05/07 02:30:00,57.3,14.6
2023/05/07 02:40:00,57.8,14.6
2023/05/07 02:50:00,57.0,14.2
2023/05/07 03:00:00,56.7,14.7
2023/05/07 03:10:00,56.7,14.4
2023/05/07 03:20:00,57.4,14.7
2023/05/07 03:30:00,53.4,14.4
2023/05/07 03:40:00,53.5,14.2
2023/05/07 03:50:00,56.3,14.3
2023/05/07 04:00:00,54.5,14.3
2023/05/07 04:10:00,52.7,14.0
2023/05/07 04:20:00,53.7,14.3
2023/05/07 04:30:00,56.0,13.9
2023/05/07 04:40:00,56.6,14.3
2023/05/07 04:50:00,56.8,13.9
2023/05/07 05:00:00,56.9,14.0
2023/05/07 05:10:00,56.2,13.5
2023/05/07 05:20:00,60.3,13.6
2023/05/07 05:30:00,60.8,13.6
2023/05/07 05:40:00,60.8,13.7
2023/05/07 05:50:00,57.4,13.5
2023/05/07 06:00:00,59.4,13.6
2023/05/07 06:10:00,59.6,13.5
2023/05/07 06:20:00,55.7,13.7
2023/05/07 06:30:00,54.0,13.2
2023/05/07 06:40:00,54.3,13.5
2023/05/07 06:50:00,56.4,13.4
2023/05/07 07:00:00,52.7,13.2
2023/05/07 07:10:00,57.9,13.4
2023/05/07 07:20:00,58.4,13.5
2023/05/07 07:30:00,55.6,13.9
2023/05/07 07:40:00,58.4,13.6
2023/05/07 07:50:00,58.3,13.5
2023/05/07 08:00:00,58.4,13.7
2023/05/07 08:10:00,58.4,13.8
2023/05/07 08:20:00,55.4,13.7
2023/05/07 08:30:00,50.2,13.3
2023/05/07 08:40:00,46.5,13.4
2023/05/07 08:50:00,44.5,13.3
2023/05/07 09:00:00,56.6,13.7
2023/05/07 09:10:00,54.4,13.3
2023/05/07 09:20:00,49.9,13.4
2023/05/07 09:30:00,59.3,13.7
2023/05/07 09:40:00,60.7,14.0
2023/05/07 09:50:00,60.9,13.8
2023/05/07 10:00:00,60.7,14.0
2023/05/07 10:10:00,60.5,13.6
2023/05/07 10:20:00,59.5,13.8
2023/05/07 10:30:00,59.7,14.0
2023/05/07 10:40:00,60.3,14.1
2023/05/07 10:50:00,60.6,13.9
2023/05/07 11:00:00,60.3,13.7
2023/05/07 11:10:00,60.5,13.8
2023/05/07 11:20:00,60.8,13.7
2023/05/07 11:30:00,60.6,13.7
2023/05/07 11:40:00,60.5,13.9
2023/05/07 11:50:00,59.5,14.4
2023/05/07 12:00:00,59.3,14.2
2023/05/07 12:10:00,59.2,14.1
2023/05/07 12:20:00,56.4,13.9
2023/05/07 12:30:00,56.3,13.9
2023/05/07 12:40:00,57.3,13.7
2023/05/07 12:50:00,58.0,14.0
2023/05/07 13:00:00,61.7,14.4
2023/05/07 13:10:00,61.2,14.3
2023/05/07 13:20:00,60.2,14.3
2023/05/07 13:30:00,60.5,14.2
2023/05/07 13:40:00,57.9,14.5
2023/05/07 13:50:00,54.1,14.3
2023/05/07 14:00:00,58.3,13.8
2023/05/07 14:10:00,57.6,13.8
2023/05/07 14:20:00,56.6,14.1
2023/05/07 14:30:00,56.7,14.1
2023/05/07 14:40:00,57.3,13.7
2023/05/07 14:50:00,57.1,13.7
2023/05/07 15:00:00,56.7,14.2
2023/05/07 15:10:00,55.2,13.7
2023/05/07 15:20:00,58.4,13.6
2023/05/07 15:30:00,58.8,13.4
2023/05/07 15:40:00,58.0,13.4
2023/05/07 15:50:00,58.9,13.6
2023/05/07 16:00:00,58.2,13.4
2023/05/07 16:10:00,57.4,13.4
2023/05/07 16:20:00,56.9,13.3
2023/05/07 16:30:00,58.0,13.4
2023/05/07 16:40:00,59.0,13.1
2023/05/07 16:50:00,58.9,13.1
2023/05/07 17:00:00,58.6,13.1
2023/05/07 17:10:00,58.8,13.0
2023/05/07 17:20:00,59.8,12.7
2023/05/07 17:30:00,60.0,12.7
2023/05/07 17:40:00,59.7,12.7
2023/05/07 17:50:00,58.4,12.7
2023/05/07 18:00:00,57.9,12.9
2023/05/07 18:10:00,58.2,12.4
2023/05/07 18:20:00,58.0,12.4
2023/05/07 18:30:00,58.3,12.4
2023/05/07 18:40:00,56.6,12.6
2023/05/07 18:50:00,55.2,12.5
2023/05/07 19:00:00,55.6,12.4
2023/05/07 19:10:00,55.3,12.1
2023/05/07 19:20:00,55.2,12.2
2023/05/07 19:30:00,55.0,12.2
2023/05/07 19:40:00,56.3,12.1
2023/05/07 19:50:00,57.4,11.9
2023/05/07 20:00:00,53.4,12.3
2023/05/07 20:10:00,53.4,11.7
2023/05/07 20:20:00,53.2,11.7
2023/05/07 20:30:00,57.2,11.6
2023/05/07 20:40:00,57.3,11.6
2023/05/07 20:50:00,51.2,11.6
2023/05/07 21:00:00,51.2,11.3
2023/05/07 21:10:00,52.8,11.2
2023/05/07 21:20:00,49.5,11.5
2023/05/07 21:30:00,49.3,11.1
2023/05/07 21:40:00,44.8,11.3
2023/05/07 21:50:00,48.1,10.9
2023/05/07 22:00:00,51.3,11.0
2023/05/07 22:10:00,49.4,10.3
2023/05/07 22:20:00,51.5,10.6
2023/05/07 22:30:00,48.8,10.4
2023/05/07 22:40:00,50.6,10.4
2023/05/07 22:50:00,55.7,10.6
2023/05/07 23:00:00,56.4,10.4
2023/05/07 23:10:00,56.2, 9.9
2023/05/07 23:20:00,54.6,10.4
2023/05/07 23:30:00,56.0,10.4
2023/05/07 23:40:00,54.8,10.4
2023/05/07 23:50:00,56.7,10.4
